カタログに戻る

KSAT3U

運用中科学SSO
NORAD 56747·PAYLOAD·🇰🇷 South Korea
この衛星名は、まだ公式ソースで確認されていません。

打ち上げ May 25, 2023 から Naro Space Center

Loading…

次のパス (今後24時間)

TLE

最新Source: Space-Track

元期: Sep 14, 2026, 14:34 UTC

1 56747U 23072E   26257.60753153  .00024477  00000-0  40678-3 0  9997
2 56747  97.4948 110.4607 0003467  43.6000 316.5525 15.52069796184239

AllMySatでKSAT3Uをリアルタイム追跡

Download on the App Store